Regional Weather Roundup
Issued by NWS

Home | Current Version | Previous Version | Graphics & Text | Print | Product List | Glossary Off
Versions: 1 2 3 4 5 6 7 8 9 10 11 12 13 14 15 16 17 18 19 20 21 22 23 24 25 26 27 28 29 30 31 32 33 34 35 36 37 38 39 40 41 42 43 44 45 46 47 48 49 50

000
ASUS43 KDTX 241910
RWRMI
MICHIGAN HOURLY REGIONAL WEATHER ROUNDUP
NATIONAL WEATHER SERVICE DETROIT/PONTIAC MI
300 PM EDT THU APR 24 2014

NOTE: "FAIR" INDICATES FEW OR NO CLOUDS BELOW 12,000 FEET WITH NO
SIGNIFICANT WEATHER AND/OR OBSTRUCTION TO VISIBILITY.

MIZ047>049-052>055-059>063-066>070-074>076-081>083-242000-
SOUTHEAST LOWER MICHIGAN

CITY           SKY/WX    TMP DP  RH WIND       PRES   REMARKS
ADRIAN         PTSUNNY   53  23  31 SE14      30.07F
ALMA           PTSUNNY   55  18  23 SE13G18   30.06F
ANN ARBOR      PTSUNNY   52  16  24 SE15      30.08F
BAD AXE        MOSUNNY   51  19  27 E9G16     30.11F
DETROIT CITY   MOSUNNY   56  20  24 SE13      30.09F
DETROIT        CLOUDY    53  16  23 SE9       30.10F
FLINT          CLOUDY    58  19  22 SE9G22    30.06F
GROSSE ILE     PTSUNNY   52  16  24 S13       30.09S
HILLSDALE      PTSUNNY   55  17  23 E14G21    30.03F
HOWELL         MOSUNNY   54  18  24 SE15      30.06F

CITY           SKY/WX    TMP DP  RH WIND       PRES   REMARKS
JACKSON        PTSUNNY   52  23  32 E15       30.04F
LAMBERTVILLE   PTSUNNY   54  25  32 SE12      30.08S
LANSING        MOSUNNY   56  21  25 S15       30.05F
LAPEER         NOT AVBL
MASON          PTSUNNY   55  22  27 SE15      30.05F
MONROE         PTSUNNY   52  21  30 SE10      30.09S
MT. CLEMENS    PTSUNNY   55  21  26 SE9       30.09F
PONTIAC        PTSUNNY   52  13  21 SE10G20   30.08F
PORT HOPE        N/A     41  33  73 E10       30.12F
PORT HURON     MOSUNNY   52  27  37 NE8       30.10F
TRI CITIES     PTSUNNY   56  19  23 SE14G21   30.08F
YPSILANTI      PTSUNNY   55  16  21 SE14G21   30.09F
$$
MIZ043>046-050>051-056>058-064>065-071>073-077>080-242000-
SOUTHWEST LOWER MICHIGAN

CITY           SKY/WX    TMP DP  RH WIND       PRES   REMARKS
BATTLE CREEK   CLOUDY    57  20  23 SE17G31   30.01F
BENTON HARBOR  PTSUNNY   58  24  27 SE21G29   29.92F
BIG RAPIDS     PTSUNNY   53  24  32 SE17G26   30.01F
COLDWATER      CLOUDY    54  15  21 SE16G23   30.01F
HOLLAND        CLOUDY    58  24  27 SE21G26   29.96F
GRAND RAPIDS   CLOUDY    56  24  29 SE18G28   30.00F
KALAMAZOO      CLOUDY    57  21  24 SE12G20   29.99F
MARSHALL       PTSUNNY   55  22  26 E9G21     30.01F
MUSKEGON       CLOUDY    58  25  28 SE25G31   29.95F
$$
MIZ016>042-242000-
NORTHERN LOWER MICHIGAN

CITY           SKY/WX    TMP DP  RH WIND       PRES   REMARKS
ALPENA         MOSUNNY   50  24  36 SE10      30.12F
BEAVER ISLAND  CLOUDY    47  23  38 E9        30.05F
BELLAIRE       CLOUDY    55  18  23 SE8       30.03F
CADILLAC       CLOUDY    49  20  31 SE14G22   30.02F
CHARLEVOIX     CLOUDY    52  19  26 E9        30.07F
FRANKFORT      CLOUDY    52  26  37 E9G23     29.99F
GAYLORD        CLOUDY    52  16  24 SE14G21   30.04F
GRAYLING       PTSUNNY   53  18  25 SE14G20   30.05F
HARBOR SPRINGS CLOUDY    55  19  24 SE7       30.04F
HOUGHTON LAKE  CLOUDY    50  16  25 SE14      30.05F
MANISTEE       CLOUDY    45  36  70 SE10      30.00F
OSCODA         CLOUDY    49  23  36 SE6       30.12F
PELLSTON       CLOUDY    53  18  25 SE12      30.07F
TRAVERSE CITY  CLOUDY    55  18  23 SE14G22   30.00F
$$
MIZ007>008-015-242000-
EASTERN UPPER MICHIGAN

CITY           SKY/WX    TMP DP  RH WIND       PRES   REMARKS
KINROSS        CLOUDY    50  18  27 SE14      30.09F
MACKINAC ISLAN CLOUDY    39  28  63 E12G20    30.08F
NEWBERRY       CLOUDY    47  23  38 SE13      30.06F
S. S. MARIE    PTSUNNY   50  20  30 SE9       30.08F
$$
MIZ004>006-011>014-085-242000-
CENTRAL UPPER MICHIGAN

CITY           SKY/WX    TMP DP  RH WIND       PRES   REMARKS
MANISTIQUE     CLOUDY    45  23  43 SE10      30.04F
ESCANABA       CLOUDY    41  27  56 SE12      30.02F
MENOMINEE      CLOUDY    37  34  87 E8        30.01R
SAWYER-GWINN   CLOUDY    45  19  36 S10       29.99F
$$
MIZ001>003-009>011-084-242000-
WESTERN UPPER MICHIGAN

CITY           SKY/WX    TMP DP  RH WIND       PRES   REMARKS
IRON MOUNTAIN  LGT RAIN  38  35  89 SE9       29.97F FOG
HOUGHTON       CLOUDY    39  26  59 SE13      29.98S
COPPER HARBOR    N/A     43  21  41 S10       30.01F
IRONWOOD       CLOUDY    37  32  81 E15       29.83F
$$

ABBREVIATIONS USED IN REMARKS
   TC - TEMPERATURE IN CELSIUS
  WCI - WIND CHILL INDEX
   HX - HEAT INDEX
  VSB - VISIBILITY




USA.gov is the U.S. government's official web portal to all federal, state and local government web resources and services.